Weather Roundup
Issued by NWS

Home | Current Version | Previous Version | Graphics & Text | Print | Product List | Glossary Off
Versions: 1 2 3 4 5 6 7 8 9 10 11 12 13 14 15 16 17 18 19 20 21 22 23 24 25 26 27 28 29 30 31 32 33 34 35 36 37 38 39 40 41 42 43 44 45 46 47 48 49 50

746
NZUS93 KARX 171310
HRRWXR

CURRENT HOURLY OBSERVATIONS ACROSS
MUCH OF THE UPPER MISSISSIPPI VALLEY
NATIONAL WEATHER SERVICE LA CROSSE WI
700 AM CST WED JAN 17 2018


...SOUTHEAST MINNESOTA...


CITY           SKY/WX    TMP DP  RH WIND       PRES   REMARKS
ROCHESTER      FAIR       3  -2  79 SW16      30.39F WCI -16
ROCHESTER/MAYO FAIR       5   0  77 SW8       30.40F WCI  -8
WINONA         FAIR       0  -4  85 CALM      30.44F
AUSTIN         FAIR      -2  -6  84 SW6       30.41F WCI -14
ALBERT LEA     FAIR       3  -2  78 SW9       30.40F WCI -11
DODGE CENTER   FAIR       1  -4  78 SW14      30.37F WCI -17
PRESTON        FAIR       3  -2  79 SW10      30.42S WCI -12
OWATONNA       FAIR       3  -2  78 SW13      30.39F WCI -14
FARIBAULT      FAIR       3   0  85 S8        30.38F WCI -10
$$

...ELSEWHERE IN MINNESOTA...


CITY           SKY/WX    TMP DP  RH WIND       PRES   REMARKS
MINNEAPOLIS    FAIR       4  -1  80 S6        30.36F WCI  -7
INTNL FALLS    FAIR      12  -1  56 SW8       29.95F WCI   0
DULUTH         FAIR       3  -3  76 W15       30.11F WCI -16
RED WING       FAIR      -6 -11  77 CALM      30.40F
REDWOOD FALLS  CLOUDY     5  -1  76 S9        30.32F WCI  -9
MANKATO        FAIR       1  -4  79 S9        30.38F WCI -14
WORTHINGTON    CLOUDY     7   0  73 SW22G29   30.32F WCI -14
FAIRMONT       CLOUDY     8   1  73 SW17      30.38F WCI -10
$$

...SOUTHWEST WISCONSIN...


CITY           SKY/WX    TMP DP  RH WIND       PRES   REMARKS
LA CROSSE      FAIR       0  -5  79 S8        30.47F WCI -14
PRAIRIE DU CHI FAIR      -3  -8  79 CALM      30.52F
BOSCOBEL       FAIR      -5 -10  79 SW5       30.52F WCI -16
LONE ROCK      FAIR      -6  -8  91 CALM      30.50F
PLATTEVILLE    FAIR      -4  -6  88 SW5       30.49F WCI -14
FORT MC COY    FAIR      -1  -4  88 W3        30.44F
CAMP DOUGLAS   MOCLDY     1  -2  85 CALM      30.40F
MAUSTON-NEW LI PTSUNNY    5   0  77 W7        30.41F WCI  -7
VIROQUA        FAIR      -3  -5  90 SW7       30.41F WCI -16
WIS DELLS      FAIR      -1  -4  85 SW6       30.42F WCI -12
$$

...ELSEWHERE IN WISCONSIN...


CITY           SKY/WX    TMP DP  RH WIND       PRES   REMARKS
MILWAUKEE      FAIR       6   2  83 W8        30.46F WCI  -7
MADISON        FAIR       1  -3  83 SW3       30.45F
GREEN BAY      MOCLDY     5  -1  76 SW10      30.37F WCI -10
EAU CLAIRE     FAIR      -2  -6  83 SW6       30.36F WCI -14
BLACK RVR FLS  FAIR      -1  -6  78 S5        30.41F WCI -11
MEDFORD        FAIR      -1  -5  84 W7        30.29F WCI -15
WAUSAU         FAIR       1  -3  83 CALM      30.32F
WIS RAPIDS     FAIR       1  -5  75 W7        30.40F WCI -12
MARSHFIELD     FAIR      -1  -4  87 W8        30.34S WCI -15
RICE LAKE      FAIR      -2  -6  80 CALM      30.32F
$$

...NORTHEAST IOWA...


CITY           SKY/WX    TMP DP  RH WIND       PRES   REMARKS
WATERLOO       FAIR      -3  -7  82 W5        30.52F WCI -13
DUBUQUE        FAIR      -4  -9  79 SW9       30.49F WCI -20
DECORAH        FAIR       0  -4  85 VRB6      30.44F WCI -12
MASON CITY     CLOUDY     2  -4  76 SW12      30.45F WCI -15
CHARLES CITY   FAIR      -2  -6  84 SW8       30.47F WCI -17
OELWEIN        FAIR      -4  -6  92 SW8       30.50S WCI -19
$$

...ELSEWHERE IN IOWA...


CITY           SKY/WX    TMP DP  RH WIND       PRES   REMARKS
DES MOINES     CLOUDY    -1  -6  79 SW5       30.55F WCI -11
IOWA CITY      FAIR      -2  -8  76 SW3       30.60F
FORT DODGE     CLOUDY     0  -3  87 SW10      30.47F WCI -16
MARSHALLTOWN   CLOUDY    -2  -6  83 SW8       30.52F WCI -17
CEDAR RAPIDS   FAIR      -5 -10  79 CALM      30.54S
$$

...NORTHERN ILLINOIS...


CITY           SKY/WX    TMP DP  RH WIND       PRES   REMARKS
CHICAGO-OHARE  FAIR       5   0  79 W7        30.52S WCI  -7
CHICAGO-MIDWAY FAIR       6   2  83 W6        30.53S WCI  -4
MOLINE         FAIR      -1  -5  82 SW7       30.59S WCI -14
ROCKFORD       FAIR      -4  -8  83 S5        30.55S WCI -15
PEORIA         FAIR      -2  -7  79 W5        30.62R WCI -12
$$

NOTE: "FAIR" INDICATES FEW OR NO CLOUDS BELOW 12,000 FEET WITH NO
SIGNIFICANT WEATHER AND/OR OBSTRUCTIONS TO VISIBILITY. WIND
SPEEDS ARE IN MILES-PER-HOUR.




USA.gov is the U.S. government's official web portal to all federal, state and local government web resources and services.